Time,TemperatureF,DewpointF,PressureIn,WindDirection,WindDirectionDegrees,WindSpeedMPH,WindSpeedGustMPH,Humidity,HourlyPrecipIn,Conditions,Clouds,dailyrainin,SoftwareType,DateUTC
2013-12-29 00:03:00,31.8,28.0,30.01,ESE,109,0.0,3.0,85,0.00,,,0.00,weatherlink.com 1.10,2013-12-29 05:03:00,
2013-12-29 00:18:00,32.9,28.0,30.01,ESE,114,1.0,2.0,83,0.00,,,0.00,weatherlink.com 1.10,2013-12-29 05:18:00,
2013-12-29 00:33:00,33.9,28.0,30.00,East,92,1.0,2.0,80,0.00,,,0.00,weatherlink.com 1.10,2013-12-29 05:33:00,
2013-12-29 00:48:00,33.1,28.0,30.00,ESE,122,0.0,2.0,81,0.00,,,0.00,weatherlink.com 1.10,2013-12-29 05:48:00,
2013-12-29 01:03:00,32.8,28.0,29.98,ESE,110,5.0,5.0,82,0.00,,,0.00,weatherlink.com 1.10,2013-12-29 06:03:00,
2013-12-29 01:18:00,33.1,28.0,29.99,SE,132,1.0,3.0,81,0.00,,,0.00,weatherlink.com 1.10,2013-12-29 06:18:00,
2013-12-29 01:33:00,32.1,28.0,29.99,SSE,148,2.0,3.0,83,0.00,,,0.00,weatherlink.com 1.10,2013-12-29 06:33:00,
2013-12-29 01:48:00,31.2,27.0,29.99,SSW,205,0.0,3.0,85,0.00,,,0.00,weatherlink.com 1.10,2013-12-29 06:48:00,
2013-12-29 02:03:00,31.0,27.0,30.00,SSE,164,1.0,2.0,86,0.00,,,0.00,weatherlink.com 1.10,2013-12-29 07:03:00,
2013-12-29 02:18:00,31.5,28.0,30.00,SE,139,0.0,3.0,86,0.00,,,0.00,weatherlink.com 1.10,2013-12-29 07:18:00,
2013-12-29 02:33:00,31.1,27.0,30.01,ESE,120,3.0,4.0,86,0.00,,,0.00,weatherlink.com 1.10,2013-12-29 07:33:00,
2013-12-29 02:48:00,31.7,28.0,30.01,SW,215,1.0,3.0,86,0.00,,,0.00,weatherlink.com 1.10,2013-12-29 07:48:00,
2013-12-29 03:03:00,30.9,28.0,30.01,SSE,155,1.0,2.0,87,0.00,,,0.00,weatherlink.com 1.10,2013-12-29 08:03:00,
2013-12-29 03:18:00,32.1,28.0,30.01,ESE,112,1.0,3.0,86,0.00,,,0.00,weatherlink.com 1.10,2013-12-29 08:18:00,
2013-12-29 03:33:00,34.6,29.0,30.00,ENE,70,2.0,4.0,81,0.00,,,0.00,weatherlink.com 1.10,2013-12-29 08:33:00,
2013-12-29 03:48:00,35.3,29.0,30.00,SSW,211,0.0,3.0,78,0.00,,,0.00,weatherlink.com 1.10,2013-12-29 08:48:00,
2013-12-29 04:03:00,36.6,29.0,30.00,SW,219,0.0,4.0,75,0.00,,,0.00,weatherlink.com 1.10,2013-12-29 09:03:00,
2013-12-29 04:18:00,37.1,30.0,30.00,South,187,0.0,3.0,74,0.00,,,0.00,weatherlink.com 1.10,2013-12-29 09:18:00,
2013-12-29 04:33:00,36.9,29.0,30.00,SSE,151,0.0,3.0,74,0.00,,,0.00,weatherlink.com 1.10,2013-12-29 09:33:00,
2013-12-29 04:48:00,37.5,30.0,30.00,East,87,6.0,6.0,73,0.00,,,0.00,weatherlink.com 1.10,2013-12-29 09:48:00,
2013-12-29 05:04:00,38.1,29.0,30.00,SE,146,0.0,5.0,71,0.00,,,0.00,weatherlink.com 1.10,2013-12-29 10:04:00,
2013-12-29 05:19:00,38.2,29.0,30.00,SW,236,1.0,3.0,70,0.00,,,0.00,weatherlink.com 1.10,2013-12-29 10:19:00,
2013-12-29 05:34:00,38.1,29.0,29.99,WSW,250,2.0,4.0,71,0.00,,,0.00,weatherlink.com 1.10,2013-12-29 10:34:00,
2013-12-29 05:49:00,38.0,29.0,29.98,SW,220,1.0,4.0,71,0.00,,,0.00,weatherlink.com 1.10,2013-12-29 10:49:00,
2013-12-29 06:04:00,37.4,29.0,29.99,South,174,0.0,4.0,72,0.00,,,0.00,weatherlink.com 1.10,2013-12-29 11:04:00,
2013-12-29 06:19:00,36.8,29.0,29.98,South,191,0.0,2.0,74,0.00,,,0.00,weatherlink.com 1.10,2013-12-29 11:19:00,
2013-12-29 06:34:00,35.9,29.0,29.98,SSW,207,0.0,1.0,77,0.00,,,0.00,weatherlink.com 1.10,2013-12-29 11:34:00,
2013-12-29 06:49:00,34.0,29.0,29.98,SW,231,0.0,1.0,82,0.00,,,0.00,weatherlink.com 1.10,2013-12-29 11:49:00,
2013-12-29 07:04:00,34.3,29.0,29.98,West,259,0.0,1.0,82,0.00,,,0.00,weatherlink.com 1.10,2013-12-29 12:04:00,
2013-12-29 07:19:00,32.9,29.0,29.97,WSW,248,0.0,1.0,86,0.00,,,0.00,weatherlink.com 1.10,2013-12-29 12:19:00,
2013-12-29 07:34:00,31.7,29.0,29.97,WSW,248,0.0,0.0,88,0.00,,,0.00,weatherlink.com 1.10,2013-12-29 12:34:00,
2013-12-29 07:49:00,31.8,29.0,29.97,WSW,248,0.0,0.0,89,0.00,,,0.00,weatherlink.com 1.10,2013-12-29 12:49:00,
2013-12-29 08:04:00,31.9,29.0,29.98,WSW,248,0.0,1.0,89,0.00,,,0.00,weatherlink.com 1.10,2013-12-29 13:04:00,
2013-12-29 08:19:00,32.3,30.0,29.98,WSW,248,0.0,0.0,89,0.00,,,0.00,weatherlink.com 1.10,2013-12-29 13:19:00,
2013-12-29 08:34:00,33.0,30.0,29.99,WSW,248,0.0,0.0,88,0.00,,,0.00,weatherlink.com 1.10,2013-12-29 13:34:00,
2013-12-29 08:49:00,33.9,31.0,29.99,WSW,248,0.0,0.0,87,0.00,,,0.00,weatherlink.com 1.10,2013-12-29 13:49:00,
2013-12-29 09:04:00,34.7,31.0,29.99,WSW,248,0.0,0.0,86,0.00,,,0.00,weatherlink.com 1.10,2013-12-29 14:04:00,
2013-12-29 09:19:00,35.8,32.0,29.98,WSW,248,0.0,0.0,85,0.00,,,0.00,weatherlink.com 1.10,2013-12-29 14:19:00,
2013-12-29 09:34:00,37.2,32.0,29.98,SE,139,0.0,0.0,82,0.00,,,0.00,weatherlink.com 1.10,2013-12-29 14:34:00,
2013-12-29 09:49:00,38.6,33.0,29.96,SSE,158,0.0,1.0,79,0.00,,,0.00,weatherlink.com 1.10,2013-12-29 14:49:00,
2013-12-29 10:04:00,40.8,32.0,29.95,SSW,204,0.0,2.0,70,0.00,,,0.00,weatherlink.com 1.10,2013-12-29 15:04:00,
2013-12-29 10:19:00,41.5,32.0,29.93,SE,129,0.0,3.0,69,0.00,,,0.00,weatherlink.com 1.10,2013-12-29 15:19:00,
2013-12-29 10:34:00,41.4,32.0,29.92,South,180,0.0,1.0,68,0.00,,,0.00,weatherlink.com 1.10,2013-12-29 15:34:00,
2013-12-29 10:49:00,41.5,32.0,29.91,SE,134,0.0,0.0,69,0.00,,,0.00,weatherlink.com 1.10,2013-12-29 15:49:00,
2013-12-29 11:04:00,42.9,31.0,29.90,SE,129,1.0,2.0,64,0.00,,,0.00,weatherlink.com 1.10,2013-12-29 16:04:00,
2013-12-29 11:19:00,42.7,31.0,29.90,ENE,78,0.0,2.0,64,0.00,,,0.00,weatherlink.com 1.10,2013-12-29 16:19:00,
2013-12-29 11:34:00,41.7,31.0,29.90,SE,131,0.0,5.0,67,0.00,,,0.00,weatherlink.com 1.10,2013-12-29 16:34:00,
2013-12-29 11:49:00,42.1,30.0,29.90,WSW,239,0.0,5.0,63,0.00,,,0.00,weatherlink.com 1.10,2013-12-29 16:49:00,
2013-12-29 12:04:00,42.2,30.0,29.89,South,186,1.0,6.0,63,0.00,,,0.00,weatherlink.com 1.10,2013-12-29 17:04:00,
2013-12-29 12:19:00,42.2,30.0,29.87,SSW,203,0.0,3.0,62,0.00,,,0.00,weatherlink.com 1.10,2013-12-29 17:19:00,
2013-12-29 12:35:00,42.2,30.0,29.85,SSE,157,2.0,7.0,62,0.00,,,0.00,weatherlink.com 1.10,2013-12-29 17:35:00,
2013-12-29 12:50:00,42.2,29.0,29.84,West,266,0.0,5.0,61,0.00,,,0.00,weatherlink.com 1.10,2013-12-29 17:50:00,
2013-12-29 13:05:00,42.0,29.0,29.84,ESE,110,3.0,10.0,61,0.00,,,0.00,weatherlink.com 1.10,2013-12-29 18:05:00,
2013-12-29 13:20:00,42.2,29.0,29.83,SSE,160,9.0,9.0,61,0.00,,,0.00,weatherlink.com 1.10,2013-12-29 18:20:00,
2013-12-29 13:35:00,42.3,30.0,29.82,West,259,3.0,15.0,62,0.00,,,0.00,weatherlink.com 1.10,2013-12-29 18:35:00,
2013-12-29 13:50:00,42.2,31.0,29.80,ESE,111,2.0,11.0,64,0.00,,,0.00,weatherlink.com 1.10,2013-12-29 18:50:00,
2013-12-29 14:05:00,42.1,31.0,29.80,East,84,2.0,8.0,65,0.00,,,0.00,weatherlink.com 1.10,2013-12-29 19:05:00,
2013-12-29 14:20:00,41.8,31.0,29.80,NW,314,0.0,8.0,66,0.00,,,0.00,weatherlink.com 1.10,2013-12-29 19:20:00,
2013-12-29 14:36:00,41.6,32.0,29.80,NE,54,1.0,8.0,69,0.00,,,0.00,weatherlink.com 1.10,2013-12-29 19:36:00,
2013-12-29 14:50:00,40.6,35.0,29.80,SSW,203,3.0,6.0,80,0.02,,,0.02,weatherlink.com 1.10,2013-12-29 19:50:00,
2013-12-29 15:05:00,38.8,36.0,29.78,SE,135,0.0,1.0,88,0.04,,,0.04,weatherlink.com 1.10,2013-12-29 20:05:00,
2013-12-29 15:20:00,37.6,35.0,29.76,SE,135,0.0,1.0,91,0.06,,,0.06,weatherlink.com 1.10,2013-12-29 20:20:00,
2013-12-29 15:35:00,36.6,35.0,29.75,SE,136,0.0,0.0,93,0.08,,,0.08,weatherlink.com 1.10,2013-12-29 20:35:00,
2013-12-29 15:50:00,36.5,35.0,29.73,WNW,290,0.0,0.0,94,0.11,,,0.13,weatherlink.com 1.10,2013-12-29 20:50:00,
2013-12-29 16:05:00,36.0,35.0,29.71,SE,129,0.0,0.0,94,0.13,,,0.17,weatherlink.com 1.10,2013-12-29 21:05:00,
2013-12-29 16:20:00,35.0,34.0,29.70,East,101,0.0,2.0,94,0.14,,,0.20,weatherlink.com 1.10,2013-12-29 21:20:00,
2013-12-29 16:35:00,33.9,32.0,29.67,ENE,69,0.0,2.0,94,0.15,,,0.23,weatherlink.com 1.10,2013-12-29 21:35:00,
2013-12-29 16:50:00,33.3,32.0,29.66,WSW,256,0.0,1.0,95,0.12,,,0.25,weatherlink.com 1.10,2013-12-29 21:50:00,
2013-12-29 17:05:00,33.0,32.0,29.65,NNW,345,0.0,0.0,95,0.11,,,0.28,weatherlink.com 1.10,2013-12-29 22:05:00,
2013-12-29 17:20:00,32.9,32.0,29.64,NNE,26,0.0,0.0,95,0.11,,,0.31,weatherlink.com 1.10,2013-12-29 22:20:00,
2013-12-29 17:35:00,33.0,32.0,29.64,East,101,0.0,0.0,96,0.13,,,0.36,weatherlink.com 1.10,2013-12-29 22:35:00,
2013-12-29 17:50:00,33.0,32.0,29.62,SSW,203,0.0,0.0,96,0.16,,,0.41,weatherlink.com 1.10,2013-12-29 22:50:00,
2013-12-29 18:05:00,33.0,32.0,29.61,WNW,287,2.0,2.0,96,0.20,,,0.48,weatherlink.com 1.10,2013-12-29 23:05:00,
2013-12-29 18:20:00,33.0,32.0,29.61,West,281,1.0,3.0,96,0.24,,,0.55,weatherlink.com 1.10,2013-12-29 23:20:00,
2013-12-29 18:35:00,33.0,32.0,29.61,West,264,0.0,2.0,96,0.23,,,0.59,weatherlink.com 1.10,2013-12-29 23:35:00,
2013-12-29 18:50:00,33.2,33.0,29.61,WNW,287,0.0,3.0,97,0.21,,,0.63,weatherlink.com 1.10,2013-12-29 23:50:00,
2013-12-29 19:05:00,33.2,33.0,29.62,WNW,290,2.0,3.0,97,0.18,,,0.66,weatherlink.com 1.10,2013-12-30 00:05:00,
2013-12-29 19:20:00,33.1,32.0,29.60,North,357,0.0,2.0,96,0.15,,,0.70,weatherlink.com 1.10,2013-12-30 00:20:00,
2013-12-29 19:35:00,32.9,32.0,29.58,WNW,293,2.0,2.0,97,0.15,,,0.75,weatherlink.com 1.10,2013-12-30 00:35:00,
2013-12-29 19:51:00,33.0,32.0,29.56,NW,315,1.0,4.0,97,0.15,,,0.78,weatherlink.com 1.10,2013-12-30 00:51:00,
2013-12-29 20:06:00,32.9,32.0,29.54,NNW,335,1.0,4.0,97,0.14,,,0.80,weatherlink.com 1.10,2013-12-30 01:06:00,
2013-12-29 20:21:00,33.1,32.0,29.52,WNW,294,1.0,6.0,97,0.12,,,0.82,weatherlink.com 1.10,2013-12-30 01:21:00,
2013-12-29 20:37:00,32.9,32.0,29.49,NW,321,2.0,8.0,97,0.10,,,0.85,weatherlink.com 1.10,2013-12-30 01:37:00,
2013-12-29 20:51:00,32.9,32.0,29.49,West,279,0.0,7.0,97,0.08,,,0.86,weatherlink.com 1.10,2013-12-30 01:51:00,
2013-12-29 21:06:00,33.2,33.0,29.52,NE,49,0.0,8.0,97,0.07,,,0.88,weatherlink.com 1.10,2013-12-30 02:06:00,
2013-12-29 21:21:00,33.6,33.0,29.52,WNW,286,1.0,4.0,97,0.10,,,0.92,weatherlink.com 1.10,2013-12-30 02:21:00,
2013-12-29 21:36:00,33.7,33.0,29.51,WNW,293,2.0,7.0,97,0.11,,,0.95,weatherlink.com 1.10,2013-12-30 02:36:00,
2013-12-29 21:51:00,33.7,33.0,29.51,WNW,293,3.0,6.0,97,0.11,,,0.97,weatherlink.com 1.10,2013-12-30 02:51:00,
2013-12-29 22:06:00,33.7,33.0,29.51,WNW,290,2.0,7.0,97,0.10,,,0.98,weatherlink.com 1.10,2013-12-30 03:06:00,
2013-12-29 22:21:00,33.8,33.0,29.52,WNW,287,8.0,9.0,97,0.07,,,0.99,weatherlink.com 1.10,2013-12-30 03:21:00,
2013-12-29 22:36:00,33.7,33.0,29.53,WSW,248,1.0,5.0,96,0.04,,,0.99,weatherlink.com 1.10,2013-12-30 03:36:00,
2013-12-29 22:51:00,33.5,33.0,29.54,West,277,2.0,5.0,96,0.02,,,0.99,weatherlink.com 1.10,2013-12-30 03:51:00,
2013-12-29 23:06:00,33.6,33.0,29.55,West,269,1.0,7.0,96,0.01,,,0.99,weatherlink.com 1.10,2013-12-30 04:06:00,
2013-12-29 23:21:00,33.4,32.0,29.55,WNW,297,0.0,4.0,96,0.00,,,0.99,weatherlink.com 1.10,2013-12-30 04:21:00,
2013-12-29 23:36:00,33.3,32.0,29.54,SSE,149,0.0,1.0,96,0.00,,,0.99,weatherlink.com 1.10,2013-12-30 04:36:00,
2013-12-29 23:51:00,32.9,32.0,29.53,WNW,290,2.0,4.0,96,0.00,,,0.99,weatherlink.com 1.10,2013-12-30 04:51:00,